Time,TemperatureF,DewpointF,PressureIn,WindDirection,WindDirectionDegrees,WindSpeedMPH,WindSpeedGustMPH,Humidity,HourlyPrecipIn,Conditions,Clouds,dailyrainin,SoftwareType,DateUTC
2014-01-01 00:00:00,44.2,44.2,30.32,North,32767,0.0,0.0,100,0.00,,,0.00,Wunderground v.1.15,2014-01-01 06:00:00,
2014-01-01 00:05:00,44.2,44.2,30.32,North,32767,0.0,0.0,100,0.00,,,0.00,Wunderground v.1.15,2014-01-01 06:05:00,
2014-01-01 00:10:00,44.1,44.1,30.32,North,32767,0.0,0.0,100,0.00,,,0.00,Wunderground v.1.15,2014-01-01 06:10:00,
2014-01-01 00:15:00,44.1,44.1,30.32,North,32767,0.0,0.0,100,0.00,,,0.00,Wunderground v.1.15,2014-01-01 06:15:00,
2014-01-01 00:20:00,44.1,44.1,30.32,North,32767,0.0,0.0,100,0.00,,,0.00,Wunderground v.1.15,2014-01-01 06:20:00,
2014-01-01 00:25:00,44.1,44.1,30.31,North,32767,0.0,0.0,100,0.00,,,0.00,Wunderground v.1.15,2014-01-01 06:25:00,
2014-01-01 00:30:00,44.1,44.1,30.32,North,32767,0.0,0.0,100,0.00,,,0.00,Wunderground v.1.15,2014-01-01 06:30:00,
2014-01-01 00:35:00,44.1,44.1,30.32,North,32767,0.0,0.0,100,0.00,,,0.00,Wunderground v.1.15,2014-01-01 06:35:00,
2014-01-01 00:40:00,44.1,44.1,30.32,North,32767,0.0,0.0,100,0.00,,,0.00,Wunderground v.1.15,2014-01-01 06:40:00,
2014-01-01 00:45:00,44.1,44.1,30.31,North,32767,0.0,0.0,100,0.00,,,0.00,Wunderground v.1.15,2014-01-01 06:45:00,
2014-01-01 00:50:00,44.1,44.1,30.30,North,32767,0.0,0.0,100,0.00,,,0.00,Wunderground v.1.15,2014-01-01 06:50:00,
2014-01-01 00:55:00,44.0,44.0,30.30,North,32767,0.0,0.0,100,0.00,,,0.00,Wunderground v.1.15,2014-01-01 06:55:00,
2014-01-01 01:00:00,44.0,44.0,30.30,North,32767,0.0,0.0,100,0.00,,,0.00,Wunderground v.1.15,2014-01-01 07:00:00,
2014-01-01 01:05:00,43.9,43.9,30.30,North,32767,0.0,0.0,100,0.00,,,0.00,Wunderground v.1.15,2014-01-01 07:05:00,
2014-01-01 01:10:00,44.0,44.0,30.31,North,32767,0.0,0.0,100,0.00,,,0.00,Wunderground v.1.15,2014-01-01 07:10:00,
2014-01-01 01:15:00,43.9,43.9,30.31,North,32767,0.0,0.0,100,0.00,,,0.00,Wunderground v.1.15,2014-01-01 07:15:00,
2014-01-01 01:20:00,44.0,44.0,30.31,North,32767,0.0,0.0,100,0.00,,,0.00,Wunderground v.1.15,2014-01-01 07:20:00,
2014-01-01 01:25:00,43.9,43.9,30.31,North,32767,0.0,0.0,100,0.00,,,0.00,Wunderground v.1.15,2014-01-01 07:25:00,
2014-01-01 01:30:00,43.9,43.9,30.30,North,32767,0.0,0.0,100,0.00,,,0.00,Wunderground v.1.15,2014-01-01 07:30:00,
2014-01-01 01:35:00,43.9,43.9,30.30,North,32767,0.0,0.0,100,0.00,,,0.00,Wunderground v.1.15,2014-01-01 07:35:00,
2014-01-01 01:40:00,43.9,43.9,30.30,North,32767,0.0,0.0,100,0.00,,,0.00,Wunderground v.1.15,2014-01-01 07:40:00,
2014-01-01 01:45:00,44.0,44.0,30.30,North,32767,0.0,0.0,100,0.00,,,0.00,Wunderground v.1.15,2014-01-01 07:45:00,
2014-01-01 01:50:00,44.2,44.2,30.31,North,32767,0.0,0.0,100,0.00,,,0.00,Wunderground v.1.15,2014-01-01 07:50:00,
2014-01-01 01:55:00,44.3,44.3,30.31,North,32767,0.0,0.0,100,0.00,,,0.00,Wunderground v.1.15,2014-01-01 07:55:00,
2014-01-01 02:00:00,44.5,44.5,30.30,North,32767,0.0,0.0,100,0.00,,,0.00,Wunderground v.1.15,2014-01-01 08:00:00,
2014-01-01 02:05:00,44.7,44.7,30.29,North,32767,0.0,0.0,100,0.00,,,0.00,Wunderground v.1.15,2014-01-01 08:05:00,
2014-01-01 02:15:00,45.1,45.1,30.28,North,32767,0.0,0.0,100,0.00,,,0.00,Wunderground v.1.15,2014-01-01 08:15:00,
2014-01-01 02:20:00,45.3,45.3,30.28,North,32767,0.0,0.0,100,0.00,,,0.00,Wunderground v.1.15,2014-01-01 08:20:00,
2014-01-01 02:25:00,45.5,45.5,30.28,North,32767,0.0,0.0,100,0.00,,,0.00,Wunderground v.1.15,2014-01-01 08:25:00,
2014-01-01 02:30:00,45.6,45.6,30.28,North,32767,0.0,0.0,100,0.00,,,0.00,Wunderground v.1.15,2014-01-01 08:30:00,
2014-01-01 02:35:00,45.8,45.8,30.28,North,32767,0.0,0.0,100,0.00,,,0.00,Wunderground v.1.15,2014-01-01 08:35:00,
2014-01-01 02:40:00,45.9,45.9,30.28,North,32767,0.0,0.0,100,0.00,,,0.01,Wunderground v.1.15,2014-01-01 08:40:00,
2014-01-01 02:45:00,46.0,46.0,30.27,North,32767,0.0,0.0,100,0.00,,,0.01,Wunderground v.1.15,2014-01-01 08:45:00,
2014-01-01 02:50:00,46.1,46.1,30.28,North,32767,0.0,0.0,100,0.00,,,0.01,Wunderground v.1.15,2014-01-01 08:50:00,
2014-01-01 02:55:00,46.2,46.2,30.27,North,32767,0.0,0.0,100,0.00,,,0.01,Wunderground v.1.15,2014-01-01 08:55:00,
2014-01-01 03:00:00,46.3,46.3,30.27,North,32767,0.0,0.0,100,0.00,,,0.01,Wunderground v.1.15,2014-01-01 09:00:00,
2014-01-01 03:05:00,46.3,46.3,30.27,North,32767,0.0,0.0,100,0.00,,,0.01,Wunderground v.1.15,2014-01-01 09:05:00,
2014-01-01 03:15:00,46.5,46.5,30.27,North,32767,0.0,0.0,100,0.00,,,0.01,Wunderground v.1.15,2014-01-01 09:15:00,
2014-01-01 03:20:00,46.5,46.5,30.26,North,32767,0.0,0.0,100,0.00,,,0.01,Wunderground v.1.15,2014-01-01 09:20:00,
2014-01-01 03:25:00,46.6,46.6,30.26,North,32767,0.0,0.0,100,0.00,,,0.01,Wunderground v.1.15,2014-01-01 09:25:00,
2014-01-01 03:30:00,46.7,46.7,30.26,North,32767,0.0,0.0,100,0.00,,,0.01,Wunderground v.1.15,2014-01-01 09:30:00,
2014-01-01 03:35:00,46.8,46.8,30.26,North,32767,0.0,0.0,100,0.00,,,0.01,Wunderground v.1.15,2014-01-01 09:35:00,
2014-01-01 03:40:00,46.8,46.8,30.26,North,32767,0.0,0.0,100,0.00,,,0.01,Wunderground v.1.15,2014-01-01 09:40:00,
2014-01-01 03:45:00,46.9,46.9,30.26,North,32767,0.0,0.0,100,0.00,,,0.01,Wunderground v.1.15,2014-01-01 09:45:00,
2014-01-01 03:50:00,46.9,46.9,30.26,North,32767,0.0,0.0,100,0.00,,,0.01,Wunderground v.1.15,2014-01-01 09:50:00,
2014-01-01 03:55:00,46.8,46.8,30.26,North,32767,0.0,0.0,100,0.00,,,0.01,Wunderground v.1.15,2014-01-01 09:55:00,
2014-01-01 04:00:00,46.8,46.8,30.26,North,32767,0.0,0.0,100,0.00,,,0.01,Wunderground v.1.15,2014-01-01 10:00:00,
2014-01-01 04:05:00,46.7,46.7,30.26,North,32767,0.0,0.0,100,0.00,,,0.01,Wunderground v.1.15,2014-01-01 10:05:00,
2014-01-01 04:10:00,46.7,46.7,30.26,North,32767,0.0,0.0,100,0.00,,,0.01,Wunderground v.1.15,2014-01-01 10:10:00,
2014-01-01 04:15:00,46.5,46.5,30.26,North,32767,0.0,0.0,100,0.00,,,0.01,Wunderground v.1.15,2014-01-01 10:15:00,
2014-01-01 04:20:00,46.3,46.3,30.26,North,32767,0.0,0.0,100,0.00,,,0.01,Wunderground v.1.15,2014-01-01 10:20:00,
2014-01-01 04:25:00,46.2,46.2,30.26,North,32767,0.0,0.0,100,0.00,,,0.01,Wunderground v.1.15,2014-01-01 10:25:00,
2014-01-01 04:30:00,46.2,46.2,30.26,North,32767,0.0,0.0,100,0.00,,,0.01,Wunderground v.1.15,2014-01-01 10:30:00,
2014-01-01 04:35:00,46.1,46.1,30.26,North,32767,0.0,0.0,100,0.00,,,0.01,Wunderground v.1.15,2014-01-01 10:35:00,
2014-01-01 04:40:00,46.0,46.0,30.25,North,32767,0.0,0.0,100,0.00,,,0.01,Wunderground v.1.15,2014-01-01 10:40:00,
2014-01-01 04:45:00,46.0,46.0,30.26,North,32767,0.0,0.0,100,0.00,,,0.01,Wunderground v.1.15,2014-01-01 10:45:00,
2014-01-01 04:50:00,46.0,46.0,30.26,North,32767,0.0,0.0,100,0.00,,,0.01,Wunderground v.1.15,2014-01-01 10:50:00,
2014-01-01 04:55:00,46.0,46.0,30.25,North,32767,0.0,0.0,100,0.00,,,0.01,Wunderground v.1.15,2014-01-01 10:55:00,
2014-01-01 05:00:00,45.9,45.9,30.25,North,32767,0.0,0.0,100,0.00,,,0.01,Wunderground v.1.15,2014-01-01 11:00:00,
2014-01-01 05:05:00,45.7,45.7,30.26,North,32767,0.0,0.0,100,0.00,,,0.01,Wunderground v.1.15,2014-01-01 11:05:00,
2014-01-01 05:10:00,45.7,45.7,30.26,North,32767,0.0,0.0,100,0.00,,,0.01,Wunderground v.1.15,2014-01-01 11:10:00,
2014-01-01 05:15:00,45.6,45.6,30.26,North,32767,0.0,0.0,100,0.00,,,0.01,Wunderground v.1.15,2014-01-01 11:15:00,
2014-01-01 05:20:00,45.6,45.6,30.25,North,32767,0.0,0.0,100,0.00,,,0.01,Wunderground v.1.15,2014-01-01 11:20:00,
2014-01-01 05:25:00,45.6,45.6,30.26,North,32767,0.0,0.0,100,0.00,,,0.01,Wunderground v.1.15,2014-01-01 11:25:00,
2014-01-01 05:30:00,45.7,45.7,30.26,North,32767,0.0,0.0,100,0.00,,,0.01,Wunderground v.1.15,2014-01-01 11:30:00,
2014-01-01 05:35:00,45.8,45.8,30.26,North,32767,0.0,0.0,100,0.00,,,0.01,Wunderground v.1.15,2014-01-01 11:35:00,
2014-01-01 05:40:00,45.8,45.8,30.25,North,32767,0.0,0.0,100,0.00,,,0.01,Wunderground v.1.15,2014-01-01 11:40:00,
2014-01-01 05:45:00,45.9,45.9,30.25,North,32767,0.0,0.0,100,0.00,,,0.01,Wunderground v.1.15,2014-01-01 11:45:00,
2014-01-01 05:50:00,45.9,45.9,30.25,North,32767,0.0,0.0,100,0.00,,,0.01,Wunderground v.1.15,2014-01-01 11:50:00,
2014-01-01 05:55:00,46.0,46.0,30.25,North,32767,0.0,0.0,100,0.00,,,0.01,Wunderground v.1.15,2014-01-01 11:55:00,
2014-01-01 06:00:00,46.0,46.0,30.25,North,32767,0.0,0.0,100,0.00,,,0.01,Wunderground v.1.15,2014-01-01 12:00:00,
2014-01-01 06:05:00,46.0,46.0,30.25,North,32767,0.0,0.0,100,0.00,,,0.01,Wunderground v.1.15,2014-01-01 12:05:00,
2014-01-01 06:10:00,46.1,46.1,30.24,North,32767,0.0,0.0,100,0.00,,,0.01,Wunderground v.1.15,2014-01-01 12:10:00,
2014-01-01 06:15:00,46.2,46.2,30.24,North,32767,0.0,0.0,100,0.00,,,0.01,Wunderground v.1.15,2014-01-01 12:15:00,
2014-01-01 06:20:00,46.5,46.5,30.24,North,32767,0.0,0.0,100,0.00,,,0.01,Wunderground v.1.15,2014-01-01 12:20:00,
2014-01-01 06:25:00,46.8,46.8,30.24,North,32767,0.0,0.0,100,0.00,,,0.01,Wunderground v.1.15,2014-01-01 12:25:00,
2014-01-01 06:30:00,46.9,46.9,30.24,North,32767,0.0,0.0,100,0.00,,,0.01,Wunderground v.1.15,2014-01-01 12:30:00,
2014-01-01 06:40:00,47.1,47.1,30.24,North,32767,0.0,0.0,100,0.00,,,0.01,Wunderground v.1.15,2014-01-01 12:40:00,
2014-01-01 06:45:00,47.3,47.3,30.23,North,32767,0.0,0.0,100,0.00,,,0.01,Wunderground v.1.15,2014-01-01 12:45:00,
2014-01-01 06:50:00,47.6,47.6,30.24,North,32767,0.0,0.0,100,0.00,,,0.01,Wunderground v.1.15,2014-01-01 12:50:00,
2014-01-01 06:55:00,48.1,48.1,30.23,North,32767,0.0,0.0,100,0.00,,,0.01,Wunderground v.1.15,2014-01-01 12:55:00,
2014-01-01 07:05:00,48.7,48.7,30.24,North,32767,0.0,0.0,100,0.00,,,0.01,Wunderground v.1.15,2014-01-01 13:05:00,
2014-01-01 07:10:00,48.9,48.9,30.24,North,32767,0.0,0.0,100,0.00,,,0.01,Wunderground v.1.15,2014-01-01 13:10:00,
2014-01-01 07:15:00,49.1,49.1,30.24,North,32767,0.0,0.0,100,0.00,,,0.01,Wunderground v.1.15,2014-01-01 13:15:00,
2014-01-01 07:20:00,49.2,49.2,30.24,North,32767,0.0,0.0,100,0.00,,,0.01,Wunderground v.1.15,2014-01-01 13:20:00,
2014-01-01 07:25:00,49.2,49.2,30.23,North,32767,0.0,0.0,100,0.00,,,0.01,Wunderground v.1.15,2014-01-01 13:25:00,
2014-01-01 07:30:00,49.4,49.4,30.24,North,32767,0.0,0.0,100,0.00,,,0.01,Wunderground v.1.15,2014-01-01 13:30:00,
2014-01-01 07:35:00,49.6,49.6,30.24,North,32767,0.0,0.0,100,0.00,,,0.01,Wunderground v.1.15,2014-01-01 13:35:00,
2014-01-01 07:40:00,49.8,49.8,30.24,North,32767,0.0,0.0,100,0.00,,,0.01,Wunderground v.1.15,2014-01-01 13:40:00,
2014-01-01 07:45:00,50.1,50.1,30.24,North,32767,0.0,0.0,100,0.00,,,0.01,Wunderground v.1.15,2014-01-01 13:45:00,
2014-01-01 07:50:00,50.3,50.3,30.24,North,32767,0.0,0.0,100,0.00,,,0.01,Wunderground v.1.15,2014-01-01 13:50:00,
2014-01-01 07:55:00,50.5,50.5,30.24,North,32767,0.0,0.0,100,0.00,,,0.01,Wunderground v.1.15,2014-01-01 13:55:00,
2014-01-01 08:00:00,50.7,50.7,30.24,North,32767,0.0,0.0,100,0.00,,,0.01,Wunderground v.1.15,2014-01-01 14:00:00,
2014-01-01 08:05:00,50.9,50.9,30.25,North,32767,0.0,0.0,100,0.00,,,0.01,Wunderground v.1.15,2014-01-01 14:05:00,
2014-01-01 08:10:00,51.0,51.0,30.25,North,32767,0.0,0.0,100,0.00,,,0.01,Wunderground v.1.15,2014-01-01 14:10:00,
2014-01-01 08:15:00,51.0,51.0,30.25,North,32767,0.0,0.0,100,0.00,,,0.01,Wunderground v.1.15,2014-01-01 14:15:00,
2014-01-01 08:20:00,51.0,51.0,30.26,North,32767,0.0,0.0,100,0.00,,,0.01,Wunderground v.1.15,2014-01-01 14:20:00,
2014-01-01 08:25:00,50.8,50.8,30.26,North,32767,0.0,0.0,100,0.00,,,0.01,Wunderground v.1.15,2014-01-01 14:25:00,
2014-01-01 08:30:00,50.7,50.7,30.25,North,32767,0.0,0.0,100,0.00,,,0.01,Wunderground v.1.15,2014-01-01 14:30:00,
2014-01-01 08:35:00,50.8,50.8,30.25,North,32767,0.0,0.0,100,0.00,,,0.01,Wunderground v.1.15,2014-01-01 14:35:00,
2014-01-01 08:40:00,50.9,50.9,30.25,North,32767,0.0,0.0,100,0.00,,,0.01,Wunderground v.1.15,2014-01-01 14:40:00,
2014-01-01 08:45:00,51.1,51.1,30.25,North,32767,0.0,0.0,100,0.00,,,0.01,Wunderground v.1.15,2014-01-01 14:45:00,
2014-01-01 08:50:00,51.5,51.5,30.26,North,32767,0.0,0.0,100,0.00,,,0.01,Wunderground v.1.15,2014-01-01 14:50:00,
2014-01-01 08:55:00,51.8,51.8,30.26,North,32767,0.0,0.0,100,0.00,,,0.01,Wunderground v.1.15,2014-01-01 14:55:00,
2014-01-01 09:00:00,51.9,51.9,30.26,North,32767,0.0,0.0,100,0.00,,,0.01,Wunderground v.1.15,2014-01-01 15:00:00,
2014-01-01 09:05:00,52.1,52.1,30.26,North,32767,0.0,0.0,100,0.00,,,0.01,Wunderground v.1.15,2014-01-01 15:05:00,
2014-01-01 09:10:00,52.4,52.4,30.26,North,32767,0.0,0.0,100,0.00,,,0.01,Wunderground v.1.15,2014-01-01 15:10:00,
2014-01-01 09:15:00,52.9,52.9,30.26,North,32767,0.0,0.0,100,0.00,,,0.01,Wunderground v.1.15,2014-01-01 15:15:00,
2014-01-01 09:20:00,53.3,53.3,30.26,North,32767,0.0,0.0,100,0.00,,,0.01,Wunderground v.1.15,2014-01-01 15:20:00,
2014-01-01 09:25:00,53.8,53.8,30.26,North,32767,0.0,0.0,100,0.00,,,0.02,Wunderground v.1.15,2014-01-01 15:25:00,
2014-01-01 09:30:00,54.2,54.2,30.26,North,32767,0.0,0.0,100,0.00,,,0.02,Wunderground v.1.15,2014-01-01 15:30:00,
2014-01-01 09:35:00,54.8,54.8,30.26,North,32767,0.0,0.0,100,0.00,,,0.02,Wunderground v.1.15,2014-01-01 15:35:00,
2014-01-01 09:40:00,55.1,55.1,30.26,North,32767,0.0,0.0,100,0.00,,,0.02,Wunderground v.1.15,2014-01-01 15:40:00,
2014-01-01 09:45:00,55.4,55.4,30.26,North,32767,0.0,0.0,100,0.00,,,0.02,Wunderground v.1.15,2014-01-01 15:45:00,
2014-01-01 09:50:00,55.8,55.8,30.26,North,32767,0.0,0.0,100,0.00,,,0.02,Wunderground v.1.15,2014-01-01 15:50:00,
2014-01-01 09:55:00,56.0,56.0,30.26,North,32767,0.0,0.0,100,0.00,,,0.02,Wunderground v.1.15,2014-01-01 15:55:00,
2014-01-01 10:00:00,56.0,56.0,30.26,North,32767,0.0,0.0,100,0.00,,,0.02,Wunderground v.1.15,2014-01-01 16:00:00,
2014-01-01 10:05:00,56.1,56.1,30.25,North,32767,0.0,0.0,100,0.00,,,0.02,Wunderground v.1.15,2014-01-01 16:05:00,
2014-01-01 10:15:00,56.1,56.1,30.25,North,32767,0.0,0.0,100,0.00,,,0.02,Wunderground v.1.15,2014-01-01 16:15:00,
2014-01-01 10:20:00,56.1,56.1,30.25,North,32767,0.0,0.0,100,0.00,,,0.02,Wunderground v.1.15,2014-01-01 16:20:00,
2014-01-01 10:30:00,56.4,56.4,30.24,North,32767,0.0,0.0,100,0.00,,,0.02,Wunderground v.1.15,2014-01-01 16:30:00,
2014-01-01 10:35:00,56.8,56.8,30.24,North,32767,0.0,0.0,100,0.00,,,0.02,Wunderground v.1.15,2014-01-01 16:35:00,
2014-01-01 10:40:00,57.1,56.8,30.24,North,32767,0.0,0.0,99,0.00,,,0.02,Wunderground v.1.15,2014-01-01 16:40:00,
2014-01-01 10:45:00,57.2,56.9,30.23,North,32767,0.0,0.0,99,0.00,,,0.02,Wunderground v.1.15,2014-01-01 16:45:00,
2014-01-01 10:50:00,57.3,57.0,30.23,North,32767,0.0,0.0,99,0.00,,,0.02,Wunderground v.1.15,2014-01-01 16:50:00,
2014-01-01 10:55:00,57.5,57.2,30.23,North,32767,0.0,0.0,99,0.00,,,0.02,Wunderground v.1.15,2014-01-01 16:55:00,
2014-01-01 11:00:00,57.9,57.6,30.23,North,32767,0.0,0.0,99,0.00,,,0.02,Wunderground v.1.15,2014-01-01 17:00:00,
2014-01-01 11:05:00,57.9,57.1,30.22,North,32767,0.0,0.0,97,0.00,,,0.02,Wunderground v.1.15,2014-01-01 17:05:00,
2014-01-01 11:15:00,58.0,57.2,30.22,North,32767,0.0,0.0,97,0.00,,,0.02,Wunderground v.1.15,2014-01-01 17:15:00,
2014-01-01 11:20:00,57.8,57.0,30.22,North,32767,0.0,0.0,97,0.00,,,0.02,Wunderground v.1.15,2014-01-01 17:20:00,
2014-01-01 11:25:00,57.9,57.3,30.21,North,32767,0.0,0.0,98,0.00,,,0.02,Wunderground v.1.15,2014-01-01 17:25:00,
2014-01-01 11:30:00,57.9,57.1,30.21,North,32767,0.0,0.0,97,0.00,,,0.02,Wunderground v.1.15,2014-01-01 17:30:00,
2014-01-01 11:35:00,57.9,57.1,30.21,North,32767,0.0,0.0,97,0.00,,,0.02,Wunderground v.1.15,2014-01-01 17:35:00,
2014-01-01 11:40:00,57.9,57.1,30.21,North,32767,0.0,0.0,97,0.00,,,0.02,Wunderground v.1.15,2014-01-01 17:40:00,
2014-01-01 11:45:00,58.0,57.2,30.20,North,32767,0.0,0.0,97,0.00,,,0.02,Wunderground v.1.15,2014-01-01 17:45:00,
2014-01-01 11:50:00,58.1,57.3,30.20,North,32767,0.0,0.0,97,0.00,,,0.02,Wunderground v.1.15,2014-01-01 17:50:00,
2014-01-01 11:55:00,58.2,57.4,30.19,North,32767,0.0,0.0,97,0.00,,,0.02,Wunderground v.1.15,2014-01-01 17:55:00,
2014-01-01 12:00:00,58.3,57.5,30.19,North,32767,0.0,0.0,97,0.00,,,0.02,Wunderground v.1.15,2014-01-01 18:00:00,
2014-01-01 12:05:00,58.5,57.9,30.19,North,32767,0.0,0.0,98,0.00,,,0.02,Wunderground v.1.15,2014-01-01 18:05:00,
2014-01-01 12:10:00,58.7,57.9,30.18,North,32767,0.0,0.0,97,0.00,,,0.02,Wunderground v.1.15,2014-01-01 18:10:00,
2014-01-01 12:15:00,58.9,58.1,30.18,North,32767,0.0,0.0,97,0.00,,,0.02,Wunderground v.1.15,2014-01-01 18:15:00,
2014-01-01 12:20:00,59.1,58.2,30.18,North,32767,0.0,0.0,97,0.00,,,0.02,Wunderground v.1.15,2014-01-01 18:20:00,
2014-01-01 12:25:00,59.2,58.3,30.17,North,32767,0.0,0.0,97,0.00,,,0.02,Wunderground v.1.15,2014-01-01 18:25:00,
2014-01-01 12:30:00,59.3,58.4,30.17,North,32767,0.0,0.0,97,0.00,,,0.02,Wunderground v.1.15,2014-01-01 18:30:00,
2014-01-01 12:35:00,59.6,58.7,30.16,North,32767,0.0,0.0,97,0.00,,,0.02,Wunderground v.1.15,2014-01-01 18:35:00,
2014-01-01 12:40:00,59.7,58.8,30.16,North,32767,0.0,0.0,97,0.00,,,0.02,Wunderground v.1.15,2014-01-01 18:40:00,
2014-01-01 12:45:00,59.8,58.7,30.16,North,32767,0.0,0.0,96,0.00,,,0.02,Wunderground v.1.15,2014-01-01 18:45:00,
2014-01-01 12:50:00,59.8,58.7,30.16,North,32767,0.0,0.0,96,0.00,,,0.02,Wunderground v.1.15,2014-01-01 18:50:00,
2014-01-01 12:55:00,59.8,58.7,30.16,North,32767,0.0,0.0,96,0.00,,,0.02,Wunderground v.1.15,2014-01-01 18:55:00,
2014-01-01 13:00:00,59.9,58.8,30.16,North,32767,0.0,0.0,96,0.00,,,0.03,Wunderground v.1.15,2014-01-01 19:00:00,
2014-01-01 13:05:00,60.1,59.0,30.15,North,32767,0.0,0.0,96,0.00,,,0.03,Wunderground v.1.15,2014-01-01 19:05:00,
2014-01-01 13:10:00,60.3,59.2,30.15,North,32767,0.0,0.0,96,0.00,,,0.03,Wunderground v.1.15,2014-01-01 19:10:00,
2014-01-01 13:15:00,60.5,59.1,30.15,North,32767,0.0,0.0,95,0.00,,,0.03,Wunderground v.1.15,2014-01-01 19:15:00,
2014-01-01 13:20:00,60.8,59.4,30.15,North,32767,0.0,0.0,95,0.00,,,0.03,Wunderground v.1.15,2014-01-01 19:20:00,
2014-01-01 13:25:00,61.1,59.7,30.14,North,32767,0.0,0.0,95,0.00,,,0.03,Wunderground v.1.15,2014-01-01 19:25:00,
2014-01-01 13:30:00,61.1,59.4,30.14,North,32767,0.0,0.0,94,0.00,,,0.03,Wunderground v.1.15,2014-01-01 19:30:00,
2014-01-01 13:35:00,61.3,59.9,30.14,North,32767,0.0,0.0,95,0.00,,,0.03,Wunderground v.1.15,2014-01-01 19:35:00,
2014-01-01 13:40:00,61.4,59.7,30.13,North,32767,0.0,0.0,94,0.00,,,0.03,Wunderground v.1.15,2014-01-01 19:40:00,
2014-01-01 13:45:00,61.3,59.6,30.13,North,32767,0.0,0.0,94,0.00,,,0.03,Wunderground v.1.15,2014-01-01 19:45:00,
2014-01-01 13:50:00,61.2,59.5,30.13,North,32767,0.0,0.0,94,0.00,,,0.03,Wunderground v.1.15,2014-01-01 19:50:00,
2014-01-01 13:55:00,61.1,59.4,30.13,North,32767,0.0,0.0,94,0.00,,,0.03,Wunderground v.1.15,2014-01-01 19:55:00,
2014-01-01 14:00:00,61.0,59.3,30.13,North,32767,0.0,0.0,94,0.00,,,0.03,Wunderground v.1.15,2014-01-01 20:00:00,
2014-01-01 14:05:00,61.2,59.8,30.12,North,32767,0.0,0.0,95,0.00,,,0.03,Wunderground v.1.15,2014-01-01 20:05:00,
2014-01-01 14:10:00,61.1,59.7,30.12,North,32767,0.0,0.0,95,0.00,,,0.03,Wunderground v.1.15,2014-01-01 20:10:00,
2014-01-01 14:15:00,61.2,59.8,30.12,North,32767,0.0,0.0,95,0.00,,,0.03,Wunderground v.1.15,2014-01-01 20:15:00,
2014-01-01 14:20:00,61.2,59.8,30.12,North,32767,0.0,0.0,95,0.00,,,0.03,Wunderground v.1.15,2014-01-01 20:20:00,
2014-01-01 14:25:00,61.2,59.8,30.12,North,32767,0.0,0.0,95,0.00,,,0.03,Wunderground v.1.15,2014-01-01 20:25:00,
2014-01-01 14:30:00,61.2,59.8,30.12,North,32767,0.0,0.0,95,0.00,,,0.03,Wunderground v.1.15,2014-01-01 20:30:00,
2014-01-01 14:35:00,61.2,59.8,30.11,North,32767,0.0,0.0,95,0.00,,,0.03,Wunderground v.1.15,2014-01-01 20:35:00,
2014-01-01 14:40:00,61.2,60.1,30.11,North,32767,0.0,0.0,96,0.00,,,0.03,Wunderground v.1.15,2014-01-01 20:40:00,
2014-01-01 14:45:00,61.1,60.0,30.11,North,32767,0.0,0.0,96,0.00,,,0.03,Wunderground v.1.15,2014-01-01 20:45:00,
2014-01-01 14:50:00,61.1,60.0,30.11,North,32767,0.0,0.0,96,0.00,,,0.03,Wunderground v.1.15,2014-01-01 20:50:00,
2014-01-01 14:55:00,61.0,59.9,30.11,North,32767,0.0,0.0,96,0.00,,,0.03,Wunderground v.1.15,2014-01-01 20:55:00,
2014-01-01 15:00:00,61.0,59.9,30.10,North,32767,0.0,0.0,96,0.00,,,0.03,Wunderground v.1.15,2014-01-01 21:00:00,
2014-01-01 15:05:00,61.0,59.9,30.10,North,32767,0.0,0.0,96,0.00,,,0.03,Wunderground v.1.15,2014-01-01 21:05:00,
2014-01-01 15:10:00,61.0,59.9,30.10,North,32767,0.0,0.0,96,0.00,,,0.03,Wunderground v.1.15,2014-01-01 21:10:00,
2014-01-01 15:15:00,61.1,60.0,30.10,North,32767,0.0,0.0,96,0.00,,,0.03,Wunderground v.1.15,2014-01-01 21:15:00,
2014-01-01 15:20:00,61.2,60.3,30.10,North,32767,0.0,0.0,97,0.00,,,0.03,Wunderground v.1.15,2014-01-01 21:20:00,
2014-01-01 15:25:00,61.3,60.2,30.09,North,32767,0.0,0.0,96,0.00,,,0.03,Wunderground v.1.15,2014-01-01 21:25:00,
2014-01-01 15:30:00,61.3,60.2,30.09,North,32767,0.0,0.0,96,0.00,,,0.03,Wunderground v.1.15,2014-01-01 21:30:00,
2014-01-01 15:35:00,61.4,60.2,30.09,North,32767,0.0,0.0,96,0.00,,,0.03,Wunderground v.1.15,2014-01-01 21:35:00,
2014-01-01 15:40:00,61.4,60.2,30.09,North,32767,0.0,0.0,96,0.00,,,0.03,Wunderground v.1.15,2014-01-01 21:40:00,
2014-01-01 15:45:00,61.5,60.6,30.09,North,32767,0.0,0.0,97,0.00,,,0.03,Wunderground v.1.15,2014-01-01 21:45:00,
2014-01-01 15:50:00,61.5,60.3,30.09,North,32767,0.0,0.0,96,0.00,,,0.03,Wunderground v.1.15,2014-01-01 21:50:00,
2014-01-01 15:55:00,61.6,60.7,30.09,North,32767,0.0,0.0,97,0.00,,,0.03,Wunderground v.1.15,2014-01-01 21:55:00,
2014-01-01 16:00:00,61.6,60.7,30.08,North,32767,0.0,0.0,97,0.00,,,0.03,Wunderground v.1.15,2014-01-01 22:00:00,
2014-01-01 16:05:00,61.5,60.6,30.08,North,32767,0.0,0.0,97,0.00,,,0.03,Wunderground v.1.15,2014-01-01 22:05:00,
2014-01-01 16:15:00,61.4,60.5,30.08,North,32767,0.0,0.0,97,0.00,,,0.03,Wunderground v.1.15,2014-01-01 22:15:00,
2014-01-01 16:20:00,61.4,60.5,30.09,North,32767,0.0,0.0,97,0.00,,,0.03,Wunderground v.1.15,2014-01-01 22:20:00,
2014-01-01 16:25:00,61.4,60.5,30.08,North,32767,0.0,0.0,97,0.00,,,0.03,Wunderground v.1.15,2014-01-01 22:25:00,
2014-01-01 16:30:00,61.3,60.7,30.09,North,32767,0.0,0.0,98,0.00,,,0.03,Wunderground v.1.15,2014-01-01 22:30:00,
2014-01-01 16:35:00,61.3,60.7,30.09,North,32767,0.0,0.0,98,0.00,,,0.03,Wunderground v.1.15,2014-01-01 22:35:00,
2014-01-01 16:40:00,61.2,60.6,30.08,North,32767,0.0,0.0,98,0.00,,,0.03,Wunderground v.1.15,2014-01-01 22:40:00,
2014-01-01 16:45:00,61.1,60.5,30.09,North,32767,0.0,0.0,98,0.00,,,0.03,Wunderground v.1.15,2014-01-01 22:45:00,
2014-01-01 16:50:00,61.0,60.4,30.08,North,32767,0.0,0.0,98,0.00,,,0.03,Wunderground v.1.15,2014-01-01 22:50:00,
2014-01-01 16:55:00,60.9,60.3,30.08,North,32767,0.0,0.0,98,0.00,,,0.03,Wunderground v.1.15,2014-01-01 22:55:00,
2014-01-01 17:00:00,60.8,60.2,30.08,North,32767,0.0,0.0,98,0.00,,,0.03,Wunderground v.1.15,2014-01-01 23:00:00,
2014-01-01 17:05:00,60.7,60.1,30.08,North,32767,0.0,0.0,98,0.00,,,0.03,Wunderground v.1.15,2014-01-01 23:05:00,
2014-01-01 17:15:00,60.6,60.0,30.08,North,32767,0.0,0.0,98,0.00,,,0.03,Wunderground v.1.15,2014-01-01 23:15:00,
2014-01-01 17:20:00,60.5,59.9,30.08,North,32767,0.0,0.0,98,0.00,,,0.03,Wunderground v.1.15,2014-01-01 23:20:00,
2014-01-01 17:25:00,60.4,59.8,30.08,North,32767,0.0,0.0,98,0.00,,,0.03,Wunderground v.1.15,2014-01-01 23:25:00,
2014-01-01 17:30:00,60.3,60.0,30.09,North,32767,0.0,0.0,99,0.00,,,0.03,Wunderground v.1.15,2014-01-01 23:30:00,
2014-01-01 17:35:00,60.3,60.0,30.09,North,32767,0.0,0.0,99,0.00,,,0.03,Wunderground v.1.15,2014-01-01 23:35:00,
2014-01-01 17:40:00,60.3,60.0,30.09,North,32767,0.0,0.0,99,0.00,,,0.03,Wunderground v.1.15,2014-01-01 23:40:00,
2014-01-01 17:45:00,60.4,60.1,30.10,North,32767,0.0,0.0,99,0.00,,,0.03,Wunderground v.1.15,2014-01-01 23:45:00,
2014-01-01 17:50:00,60.4,60.1,30.11,North,32767,0.0,0.0,99,0.00,,,0.03,Wunderground v.1.15,2014-01-01 23:50:00,
2014-01-01 17:55:00,60.4,60.1,30.11,North,32767,0.0,0.0,99,0.00,,,0.03,Wunderground v.1.15,2014-01-01 23:55:00,
2014-01-01 18:00:00,60.5,59.9,30.10,North,32767,0.0,0.0,98,0.00,,,0.03,Wunderground v.1.15,2014-01-02 00:00:00,
2014-01-01 18:05:00,60.4,60.1,30.10,North,32767,0.0,0.0,99,0.00,,,0.03,Wunderground v.1.15,2014-01-02 00:05:00,
2014-01-01 18:10:00,60.4,60.1,30.10,North,32767,0.0,0.0,99,0.00,,,0.03,Wunderground v.1.15,2014-01-02 00:10:00,
2014-01-01 18:15:00,60.3,60.0,30.10,North,32767,0.0,0.0,99,0.00,,,0.03,Wunderground v.1.15,2014-01-02 00:15:00,
2014-01-01 18:20:00,60.2,59.9,30.10,North,32767,0.0,0.0,99,0.00,,,0.03,Wunderground v.1.15,2014-01-02 00:20:00,
2014-01-01 18:25:00,60.1,59.8,30.09,North,32767,0.0,0.0,99,0.00,,,0.03,Wunderground v.1.15,2014-01-02 00:25:00,
2014-01-01 18:30:00,60.0,59.7,30.09,North,32767,0.0,0.0,99,0.00,,,0.03,Wunderground v.1.15,2014-01-02 00:30:00,
2014-01-01 18:35:00,60.0,60.0,30.10,North,32767,0.0,0.0,100,0.00,,,0.03,Wunderground v.1.15,2014-01-02 00:35:00,
2014-01-01 18:40:00,60.0,59.7,30.10,North,32767,0.0,0.0,99,0.00,,,0.03,Wunderground v.1.15,2014-01-02 00:40:00,
2014-01-01 18:45:00,60.1,59.8,30.09,North,32767,0.0,0.0,99,0.00,,,0.03,Wunderground v.1.15,2014-01-02 00:45:00,
2014-01-01 18:50:00,60.2,59.9,30.09,North,32767,0.0,0.0,99,0.00,,,0.03,Wunderground v.1.15,2014-01-02 00:50:00,
2014-01-01 18:55:00,60.2,59.9,30.09,North,32767,0.0,0.0,99,0.00,,,0.03,Wunderground v.1.15,2014-01-02 00:55:00,
2014-01-01 19:00:00,60.3,60.0,30.09,North,32767,0.0,0.0,99,0.00,,,0.03,Wunderground v.1.15,2014-01-02 01:00:00,
2014-01-01 19:05:00,60.3,60.0,30.09,North,32767,0.0,0.0,99,0.00,,,0.03,Wunderground v.1.15,2014-01-02 01:05:00,
2014-01-01 19:10:00,60.3,60.0,30.08,North,32767,0.0,0.0,99,0.00,,,0.03,Wunderground v.1.15,2014-01-02 01:10:00,
2014-01-01 19:15:00,60.3,60.0,30.08,North,32767,0.0,0.0,99,0.00,,,0.03,Wunderground v.1.15,2014-01-02 01:15:00,
2014-01-01 19:20:00,60.2,59.9,30.08,North,32767,0.0,0.0,99,0.00,,,0.03,Wunderground v.1.15,2014-01-02 01:20:00,
2014-01-01 19:30:00,60.2,59.9,30.09,North,32767,0.0,0.0,99,0.00,,,0.03,Wunderground v.1.15,2014-01-02 01:30:00,
2014-01-01 19:35:00,60.2,59.9,30.09,North,32767,0.0,0.0,99,0.00,,,0.03,Wunderground v.1.15,2014-01-02 01:35:00,
2014-01-01 19:40:00,60.1,59.8,30.09,North,32767,0.0,0.0,99,0.00,,,0.03,Wunderground v.1.15,2014-01-02 01:40:00,
2014-01-01 19:45:00,60.0,59.7,30.09,North,32767,0.0,0.0,99,0.00,,,0.03,Wunderground v.1.15,2014-01-02 01:45:00,
2014-01-01 19:55:00,59.8,59.5,30.09,North,32767,0.0,0.0,99,0.00,,,0.03,Wunderground v.1.15,2014-01-02 01:55:00,
2014-01-01 20:00:00,59.6,59.6,30.09,North,32767,0.0,0.0,100,0.00,,,0.03,Wunderground v.1.15,2014-01-02 02:00:00,
2014-01-01 20:05:00,59.6,59.6,30.09,North,32767,0.0,0.0,100,0.00,,,0.03,Wunderground v.1.15,2014-01-02 02:05:00,
2014-01-01 20:10:00,59.4,59.4,30.09,North,32767,0.0,0.0,100,0.00,,,0.03,Wunderground v.1.15,2014-01-02 02:10:00,
2014-01-01 20:15:00,59.3,59.3,30.09,North,32767,0.0,0.0,100,0.00,,,0.03,Wunderground v.1.15,2014-01-02 02:15:00,
2014-01-01 20:20:00,59.2,59.2,30.09,North,32767,0.0,0.0,100,0.00,,,0.03,Wunderground v.1.15,2014-01-02 02:20:00,
2014-01-01 20:25:00,59.1,59.1,30.09,North,32767,0.0,0.0,100,0.00,,,0.03,Wunderground v.1.15,2014-01-02 02:25:00,
2014-01-01 20:30:00,58.9,58.9,30.10,North,32767,0.0,0.0,100,0.00,,,0.03,Wunderground v.1.15,2014-01-02 02:30:00,
2014-01-01 20:40:00,58.5,58.5,30.10,North,32767,0.0,0.0,100,0.00,,,0.03,Wunderground v.1.15,2014-01-02 02:40:00,
2014-01-01 20:45:00,58.4,58.4,30.10,North,32767,0.0,0.0,100,0.00,,,0.03,Wunderground v.1.15,2014-01-02 02:45:00,
2014-01-01 20:50:00,58.3,58.3,30.09,North,32767,0.0,0.0,100,0.00,,,0.03,Wunderground v.1.15,2014-01-02 02:50:00,
2014-01-01 20:55:00,58.1,58.1,30.10,North,32767,0.0,0.0,100,0.00,,,0.03,Wunderground v.1.15,2014-01-02 02:55:00,
2014-01-01 21:00:00,58.0,58.0,30.10,North,32767,0.0,0.0,100,0.00,,,0.03,Wunderground v.1.15,2014-01-02 03:00:00,
2014-01-01 21:05:00,57.8,57.8,30.09,North,32767,0.0,0.0,100,0.00,,,0.03,Wunderground v.1.15,2014-01-02 03:05:00,
2014-01-01 21:15:00,57.7,57.7,30.08,North,32767,0.0,0.0,100,0.00,,,0.03,Wunderground v.1.15,2014-01-02 03:15:00,
2014-01-01 21:20:00,57.6,57.6,30.08,North,32767,0.0,0.0,100,0.00,,,0.03,Wunderground v.1.15,2014-01-02 03:20:00,
2014-01-01 21:25:00,57.5,57.5,30.08,North,32767,0.0,0.0,100,0.00,,,0.03,Wunderground v.1.15,2014-01-02 03:25:00,
2014-01-01 21:30:00,57.5,57.5,30.08,North,32767,0.0,0.0,100,0.00,,,0.03,Wunderground v.1.15,2014-01-02 03:30:00,
2014-01-01 21:35:00,57.3,57.3,30.07,North,32767,0.0,0.0,100,0.00,,,0.03,Wunderground v.1.15,2014-01-02 03:35:00,
2014-01-01 21:40:00,57.2,57.2,30.06,North,32767,0.0,0.0,100,0.00,,,0.03,Wunderground v.1.15,2014-01-02 03:40:00,
2014-01-01 21:50:00,57.0,57.0,30.04,North,32767,0.0,0.0,100,0.00,,,0.03,Wunderground v.1.15,2014-01-02 03:50:00,
2014-01-01 21:55:00,56.8,56.8,30.04,North,32767,0.0,0.0,100,0.00,,,0.03,Wunderground v.1.15,2014-01-02 03:55:00,
2014-01-01 22:00:00,56.9,56.9,30.04,North,32767,0.0,0.0,100,0.00,,,0.03,Wunderground v.1.15,2014-01-02 04:00:00,
2014-01-01 22:05:00,56.8,56.8,30.03,North,32767,0.0,0.0,100,0.00,,,0.03,Wunderground v.1.15,2014-01-02 04:05:00,
2014-01-01 22:15:00,56.8,56.8,30.05,North,32767,0.0,0.0,100,0.00,,,0.03,Wunderground v.1.15,2014-01-02 04:15:00,
2014-01-01 22:20:00,56.7,56.7,30.05,North,32767,0.0,0.0,100,0.00,,,0.03,Wunderground v.1.15,2014-01-02 04:20:00,
2014-01-01 22:25:00,56.6,56.6,30.04,North,32767,0.0,0.0,100,0.00,,,0.03,Wunderground v.1.15,2014-01-02 04:25:00,
2014-01-01 22:30:00,56.3,56.3,30.04,North,32767,0.0,0.0,100,0.00,,,0.03,Wunderground v.1.15,2014-01-02 04:30:00,
2014-01-01 22:35:00,56.2,56.2,30.04,North,32767,0.0,0.0,100,0.00,,,0.03,Wunderground v.1.15,2014-01-02 04:35:00,
2014-01-01 22:40:00,56.1,56.1,30.03,North,32767,0.0,0.0,100,0.00,,,0.03,Wunderground v.1.15,2014-01-02 04:40:00,
2014-01-01 22:45:00,56.1,56.1,30.05,North,32767,0.0,0.0,100,0.00,,,0.03,Wunderground v.1.15,2014-01-02 04:45:00,
2014-01-01 22:50:00,56.1,56.1,30.05,North,32767,0.0,0.0,100,0.00,,,0.03,Wunderground v.1.15,2014-01-02 04:50:00,
2014-01-01 22:55:00,56.1,56.1,30.05,North,32767,0.0,0.0,100,0.00,,,0.03,Wunderground v.1.15,2014-01-02 04:55:00,
2014-01-01 23:00:00,56.1,56.1,30.05,North,32767,0.0,0.0,100,0.00,,,0.03,Wunderground v.1.15,2014-01-02 05:00:00,
2014-01-01 23:05:00,56.2,56.2,30.05,North,32767,0.0,0.0,100,0.00,,,0.03,Wunderground v.1.15,2014-01-02 05:05:00,
2014-01-01 23:10:00,56.3,56.3,30.04,North,32767,0.0,0.0,100,0.00,,,0.03,Wunderground v.1.15,2014-01-02 05:10:00,
2014-01-01 23:15:00,56.5,56.5,30.04,North,32767,0.0,0.0,100,0.00,,,0.03,Wunderground v.1.15,2014-01-02 05:15:00,
2014-01-01 23:20:00,56.8,56.8,30.04,North,32767,0.0,0.0,100,0.00,,,0.03,Wunderground v.1.15,2014-01-02 05:20:00,
2014-01-01 23:25:00,56.9,56.9,30.04,North,32767,0.0,0.0,100,0.00,,,0.03,Wunderground v.1.15,2014-01-02 05:25:00,
2014-01-01 23:30:00,57.1,57.1,30.04,North,32767,0.0,0.0,100,0.00,,,0.03,Wunderground v.1.15,2014-01-02 05:30:00,
2014-01-01 23:40:00,57.1,57.1,30.03,North,32767,0.0,0.0,100,0.00,,,0.03,Wunderground v.1.15,2014-01-02 05:40:00,
2014-01-01 23:45:00,57.1,57.1,30.04,North,32767,0.0,0.0,100,0.00,,,0.03,Wunderground v.1.15,2014-01-02 05:45:00,
2014-01-01 23:50:00,57.1,57.1,30.04,North,32767,0.0,0.0,100,0.00,,,0.03,Wunderground v.1.15,2014-01-02 05:50:00,
2014-01-01 23:55:00,57.2,57.2,30.03,North,32767,0.0,0.0,100,0.00,,,0.03,Wunderground v.1.15,2014-01-02 05:55:00,